Location: Huntsville
(41.2590°N, 111.7678°W)
Time: 18:35:54
(UTC+00:00)

Tiros 1 - All Passes

Search period start: 18 June 2021 00:00
Search period end: 28 June 2021 00:00
Orbit: 630 x 664 km, 48.4° (Epoch: 17 June)

Date Brightness Start Highest point End Pass type
(mag) Time Alt. Az. Time Alt. Az. Time Alt. Az.
18 Jun - 00:55:17 10° WNW 00:59:36 35° SW 01:03:56 10° SSE daylight
18 Jun - 16:49:50 10° S 16:53:36 25° SE 16:57:24 10° E daylight
18 Jun - 18:30:48 10° WSW 18:35:27 76° NNW 18:40:10 10° ENE daylight
18 Jun - 20:13:48 10° WNW 20:18:08 36° N 20:22:30 10° ENE daylight
18 Jun - 21:56:37 10° WNW 22:01:05 41° NNE 22:05:35 10° E daylight
18 Jun - 23:38:49 10° WNW 23:43:34 76° SSW 23:48:20 10° SE daylight
19 Jun - 01:22:17 10° W 01:25:11 16° SW 01:28:05 10° S daylight
19 Jun - 17:14:48 10° SW 17:19:18 53° SE 17:23:51 10° ENE daylight
19 Jun - 18:57:03 10° W 19:01:34 47° NNW 19:06:08 10° ENE daylight
19 Jun - 20:40:11 10° WNW 20:44:29 34° N 20:48:48 10° ENE daylight
19 Jun - 22:22:36 10° WNW 22:27:17 59° NNE 22:32:00 10° ESE daylight
20 Jun - 00:05:00 10° WNW 00:09:22 37° SW 00:13:46 10° SSE daylight
20 Jun - 15:59:47 10° S 16:03:24 23° SE 16:07:03 10° E daylight
20 Jun - 17:40:33 10° WSW 17:45:12 81° NNW 17:49:54 10° ENE daylight
20 Jun - 19:23:31 10° WNW 19:27:50 36° N 19:32:12 10° ENE daylight
20 Jun - 21:06:22 10° WNW 21:10:48 39° NNE 21:15:16 10° E daylight
20 Jun - 22:48:34 10° WNW 22:53:19 81° SSW 22:58:05 10° SE daylight
21 Jun - 00:31:51 10° W 00:34:59 18° SW 00:38:08 10° S daylight
21 Jun - 16:24:37 10° SW 16:29:04 49° SE 16:33:34 10° ENE daylight
21 Jun - 18:06:47 10° W 18:11:18 49° NNW 18:15:52 10° ENE daylight
21 Jun - 19:49:55 10° WNW 19:54:10 34° N 19:58:29 10° ENE daylight
21 Jun - 21:32:22 10° WNW 21:37:01 56° NNE 21:41:41 10° E daylight
21 Jun - 23:14:43 10° WNW 23:19:09 40° SW 23:23:36 10° SSE daylight
22 Jun - 15:09:46 10° S 15:13:12 21° SE 15:16:41 10° E daylight
22 Jun - 16:50:19 10° WSW 16:54:57 86° NNW 16:59:39 10° ENE daylight
22 Jun - 18:33:13 10° WNW 18:37:33 37° N 18:41:55 10° ENE daylight
22 Jun - 20:16:07 10° WNW 20:20:31 38° NNE 20:24:57 10° E daylight
22 Jun - 21:58:20 10° WNW 22:03:04 86° SSW 22:07:50 10° ESE daylight
22 Jun - 23:41:27 10° W 23:44:46 19° SW 23:48:07 10° S daylight
23 Jun - 15:34:28 10° SW 15:38:51 45° SE 15:43:17 10° ENE daylight
23 Jun - 17:16:30 10° W 17:21:01 52° NNW 17:25:37 10° ENE daylight
23 Jun - 18:59:38 10° WNW 19:03:53 34° N 19:08:11 10° ENE daylight
23 Jun - 20:42:08 10° WNW 20:46:45 53° NNE 20:51:23 10° E daylight
23 Jun - 22:24:26 10° WNW 22:28:55 44° SW 22:33:25 10° SSE daylight
24 Jun - 14:19:46 10° S 14:23:01 19° SE 14:26:17 10° E daylight
24 Jun - 16:00:05 10° WSW 16:04:43 89° SE 16:09:23 10° ENE daylight
24 Jun - 17:42:56 10° W 17:47:16 37° N 17:51:39 10° ENE daylight
24 Jun - 19:25:52 10° WNW 19:30:13 37° N 19:34:37 10° ENE daylight
24 Jun - 21:08:06 10° WNW 21:12:49 89° NNE 21:17:34 10° ESE daylight
24 Jun - 22:51:04 10° W 22:54:34 21° SW 22:58:05 10° S daylight
25 Jun - 14:44:19 10° SSW 14:48:38 41° SE 14:53:00 10° ENE daylight
25 Jun - 16:26:13 10° W 16:30:46 54° NNW 16:35:22 10° ENE daylight
25 Jun - 18:09:22 10° WNW 18:13:36 33° N 18:17:53 10° ENE daylight
25 Jun - 19:51:54 10° WNW 19:56:28 51° NNE 20:01:04 10° E daylight
25 Jun - 21:34:10 10° WNW 21:38:41 47° SW 21:43:13 10° SE daylight
26 Jun - 13:29:47 10° S 13:32:49 18° SE 13:35:52 10° E daylight
26 Jun - 15:09:51 10° WSW 15:14:29 84° SSE 15:19:08 10° ENE daylight
26 Jun - 16:52:39 10° W 16:57:00 38° NNW 17:01:23 10° ENE daylight
26 Jun - 18:35:37 10° WNW 18:39:57 36° N 18:44:18 10° ENE daylight
26 Jun - 20:17:51 10° WNW 20:22:34 83° NNE 20:27:18 10° ESE daylight
26 Jun - 22:00:43 10° W 22:04:22 22° SW 22:08:02 10° S daylight
27 Jun - 13:54:10 10° SSW 13:58:26 38° SE 14:02:42 10° ENE daylight
27 Jun - 15:35:58 10° WSW 15:40:31 57° NNW 15:45:06 10° ENE daylight
27 Jun - 17:19:06 10° WNW 17:23:19 33° N 17:27:35 10° ENE daylight
27 Jun - 19:01:40 10° WNW 19:06:12 48° NNE 19:10:46 10° E daylight
27 Jun - 20:43:55 10° WNW 20:48:28 51° SW 20:53:02 10° SE daylight
